Simultaneous Nadir Overpasses (SNOs) Predictions

Prediction of SNOs between GOES-16 and METOP-A Satellite Orbit:

Table of predicted SNOs for the next 14.0 days since TLE Epoch: 11/20/2021
Index Date Time (GOES-16) GOES-16 Lat,Lon METOP-A Lat,Lon Distance(km) Time Diff (sec)
1 11/21/2021 00:50:37 0.03, -75.18 0.03, -75.26 8.66 80
2 11/22/2021 12:47:48 -0.03, -75.21 -0.32, -73.93 145.77 80
3 11/24/2021 00:41:57 0.02, -75.19 0.58, -72.50 304.82 80
4 11/25/2021 12:37:06 -0.02, -75.22 -0.88, -71.34 442.29 80
5 11/26/2021 01:05:19 0.02, -75.20 -0.78, -78.81 411.73 80
6 11/27/2021 13:00:52 -0.02, -75.23 0.52, -77.74 285.02 80
7 11/29/2021 00:55:57 0.02, -75.22 -0.27, -76.55 151.07 80
8 11/30/2021 12:52:06 -0.02, -75.26 0.09, -75.61 40.47 80
9 12/02/2021 00:50:26 0.02, -75.25 0.18, -74.57 78.22 80
10 12/03/2021 12:47:09 -0.02, -75.30 -0.35, -73.78 173.01 80
